Nueva Hesperides International Airport

Jump to: basic info | weather | frequencies | runways | comments

Related pages: nearby airports | nearby navaids | notams | map

Basic information (top)

Codes: STY SUSO
Location: lon -31.438499, lat -57.985298, elev 187 ft / 57 m msl
Status: medium_airport

Weather (top)

Current conditions (rec'd 2014/11/21 16:00Z):

SUSO 211600Z 22010KT 3000 RA BKN007 OVC017 FEW0TCU 17/16 Q1010

Airport forecast (rec'd 2014/11/19 18:00Z):

TAF SUSO 191700Z 1918/2018 34008KT 9999 SCT017 BKN070 TX28/2019Z TN18/2009Z 
      TEMPO 1918/2000 23015G28KT 4000 TSRA BKN010 FEW040CB OVC060 
      BECMG 1920/1922 22005KT 
      BECMG 1922/2000 12005KT

Frequencies (top)

Verify before use: may be inaccurate or out of date.

RDO: 286 MHz (SALTO RDO)
TWR: 118.8 MHz (SALTO TWR)

Runways (top)

05/23: 5,210 x 148 ft (1,588 x 45 m) — paved — lighted

13/31: 2,461 x 164 ft (750 x 50 m) — grass — not lighted

Latest comments (top)

No comments yet for Nueva Hesperides International Airport

More... (top)

See also NOTAMs and nearby airports and navaids, or visit the Nueva Hesperides International Airport page at the main OurAirports website..